Cloud_Cover
100 100 100 100 100 5 0 0 0 0 0 0 0 0 0 0 0 0 0 0 0 5 0 2 1 4 0 3 0 0 0 5 1 3 5 4 0 1 88 27 42 0 0
100 97 100 93 0 0 0 0 0 0 1 0 0 0 0 3 0 0 0 0 1 3 0 0 0 4 5 5 2 3 5 4 10 4 5 5 5 0 8 100 98 0 1
56 97 58 5 0 0 0 0 0 0 0 0 0 0 0 0 0 0 0 0 0 4 4 0 0 9 6 15 90 100 48 8 23 100 36 5 9 4 7 100 81 4 0
45 46 5 5 0 0 0 0 0 0 1 0 0 0 0 1 0 2 0 0 0 9 0 3 5 6 29 95 59 66 95 60 91 5 18 25 7 8 71 54 58 32 0
50 12 1 2 0 0 0 0 0 0 0 0 0 0 0 0 0 1 2 0 1 5 6 5 5 90 100 51 11 25 95 72 69 100 95 100 30 14 13 5 5 87 43
5 47 0 0 0 0 0 0 0 0 0 0 0 0 2 1 9 0 1 0 0 4 6 5 9 20 95 100 100 100 100 100 96 100 10 17 5 5 13 21 16 100 95
3 24 0 0 0 0 0 0 0 1 1 1 0 0 0 0 3 1 0 0 0 0 0 1 5 25 77 47 85 100 98 62 100 66 12 30 4 42 5 5 5 56 89
85 10 0 0 0 0 0 0 0 5 3 0 3 0 0 0 0 0 0 0 0 0 0 0 0 0 0 0 0 0 5 5 100 100 45 70 40 72 14 5 31 5 5
46 0 1 7 3 0 0 0 0 0 0 0 10 27 0 0 0 0 0 0 0 0 0 0 0 0 0 0 0 0 8 26 89 84 100 65 82 5 21 99 5 5 5
15 0 0 0 5 0 0 0 0 0 0 13 100 100 68 0 0 0 0 0 0 0 0 0 0 0 0 0 0 0 5 58 5 90 72 40 93 69 98 39 16 6 100
0 0 0 0 0 0 0 0 0 1 0 16 100 98 80 73 3 3 0 0 0 1 1 0 0 0 0 2 73 52 1 89 4 99 4 5 5 5 46 17 46 13 97
52 0 0 0 0 1 0 0 0 0 82 100 100 100 13 2 81 66 0 0 98 100 100 40 0 16 1 93 20 100 60 0 4 3 0 4 5 5 2 4 5 5 5
72 0 0 0 0 0 0 0 0 0 75 100 100 100 100 51 100 27 37 1 53 99 100 54 86 2 6 47 85 5 37 98 93 2 0 0 4 0 6 0 0 5 5
39 5 0 0 0 14 5 0 0 0 59 96 12 100 99 93 57 4 0 26 48 91 35 5 30 14 37 97 0 99 74 93 86 77 0 0 4 5 0 3 0 0 3
75 96 38 0 0 36 92 0 12 90 19 95 2 52 45 1 2 98 92 39 10 86 95 97 5 96 18 38 62 67 39 100 90 94 3 0 5 5 5 21 5 9 10
82 24 3 0 0 4 0 7 100 20 70 93 90 0 0 92 81 99 50 66 46 97 37 60 27 18 94 5 25 26 100 52 17 83 16 29 9 5 5 6 5 11 11
14 9 0 0 0 0 0 0 4 0 91 17 96 8 0 8 6 98 14 28 47 5 3 0 35 84 54 5 5 94 8 77 20 100 99 100 100 87 5 5 5 5 5
12 4 0 0 0 0 0 0 0 0 1 79 41 0 0 0 0 0 9 93 49 98 4 92 6 90 53 8 28 99 100 26 29 91 96 97 100 83 13 5 5 4 1
28 0 0 0 0 0 0 0 0 0 0 0 17 1 0 0 10 0 28 92 17 23 19 11 0 100 15 55 100 82 12 75 100 64 5 91 89 89 100 10 31 11 8
0 0 0 0 0 0 0 0 0 0 0 0 0 0 0 0 0 1 31 26 6 9 36 4 0 0 30 63 94 100 38 13 100 71 90 78 85 90 54 65 32 39 7
0 0 0 0 0 0 0 0 0 0 0 0 0 0 0 0 0 0 3 60 0 2 0 0 0 66 76 0 0 0 0 0 0 100 100 98 99 100 100 61 19 95 49
0 0 0 0 0 0 0 0 0 0 0 0 0 0 0 4 4 0 1 0 6 39 4 0 0 71 0 0 14 75 83 11 98 90 73 92 100 100 53 100 61 12 44
0 0 0 0 0 0 0 0 0 0 0 0 0 0 0 0 18 21 0 0 34 6 99 0 0 1 18 0 0 14 100 100 28 77 17 48 62 51 81 100 100 78 56
0 0 0 0 0 0 0 0 0 0 0 0 0 0 0 0 1 0 0 0 0 0 0 0 0 0 0 0 0 0 0 0 9 61 67 34 80 69 91 82 87 55 85
0 0 0 0 0 0 0 0 0 0 0 0 0 0 0 1 0 0 0 0 0 0 0 0 0 0 0 0 0 0 0 0 0 5 98 94 18 31 58 99 99 97 82
0 0 0 0 0 0 0 0 0 0 0 0 0 0 0 0 0 0 0 0 0 0 0 0 0 0 0 0 0 0 5 0 2 0 99 99 35 21 56 100 37 18 40